VE3ZEB-1 Weather Reports


Display with metric or nautical units.
time (UTC)temp
F
wind
direction
speed
MPH
gust
MPH
rain 1hr
in
rain 24hr
in
rain mn
in
humidity
%
barometer
mb
20260510115022 41 334 2.0 4.0 0.00 0.18 0.00 77 679.3
20260510114022 40 321 2.0 5.0 0.00 0.18 0.00 77 679.2
20260510113017 39 324 3.0 5.0 0.00 0.18 0.00 77 679.2
20260510112037 38 319 3.0 6.0 0.00 0.18 0.00 77 679.2
20260510111018 38 320 3.0 6.0 0.00 0.18 0.00 77 679.2
20260510110018 37 319 3.0 5.0 0.00 0.18 0.00 77 679.2
20260510105038 37 316 3.0 5.0 0.00 0.18 0.00 77 679.2
20260510104018 36 319 3.0 6.0 0.00 0.18 0.00 77 679.2
20260510103038 36 319 2.0 4.0 0.00 0.18 0.00 77 679.2
20260510102018 36 314 3.0 5.0 0.00 0.18 0.00 77 679.2
20260510101018 36 317 3.0 4.0 0.00 0.18 0.00 77 679.2
20260510100019 36 315 3.0 5.0 0.00 0.18 0.00 77 679.2
20260510095018 36 310 2.0 3.0 0.00 0.18 0.00 77 679.2
20260510094016 36 319 3.0 5.0 0.00 0.18 0.00 77 679.2
20260510093017 36 322 2.0 4.0 0.00 0.18 0.00 77 679.2
20260510092037 37 313 2.0 3.0 0.00 0.18 0.00 77 679.2
20260510091017 37 307 2.0 3.0 0.00 0.18 0.00 77 679.2
20260510090019 37 313 2.0 3.0 0.00 0.18 0.00 76 679.2
20260510085019 38 320 1.0 2.0 0.00 0.18 0.00 76 679.2
20260510084019 38 318 1.0 2.0 0.00 0.18 0.00 75 679.2
20260510083019 38 316 1.0 2.0 0.00 0.18 0.00 75 679.2
20260510082020 38 318 1.0 3.0 0.00 0.18 0.00 75 679.2
20260510081038 39 317 1.0 2.0 0.00 0.18 0.00 74 679.2
20260510080018 39 331 1.0 1.0 0.00 0.18 0.00 74 679.2
20260510075018 39 337 1.0 2.0 0.00 0.18 0.00 73 679.2
20260510074018 40 322 1.0 3.0 0.00 0.18 0.00 73 679.3
20260510073018 40 336 1.0 2.0 0.00 0.18 0.00 72 679.3
20260510072018 41 353 2.0 3.0 0.00 0.18 0.00 71 679.3
20260510071018 41 355 2.0 3.0 0.00 0.18 0.00 71 679.3
20260510070018 41 352 2.0 4.0 0.00 0.18 0.00 70 679.3
20260510065019 42 351 2.0 5.0 0.00 0.18 0.00 71 679.3
20260510064019 42 358 2.0 6.0 0.00 0.18 0.00 72 679.3
20260510063019 42 352 1.0 2.0 0.00 0.18 0.00 71 679.3
20260510062019 43 9 2.0 3.0 0.00 0.18 0.00 71 679.3
20260510061019 43 1 1.0 2.0 0.00 0.18 0.00 71 679.3
20260510060019 43 39 0.0 2.0 0.00 0.18 0.00 70 679.3
20260510055020 44 353 2.0 3.0 0.00 0.18 0.00 69 679.3
20260510054019 44 2 2.0 4.0 0.00 0.18 0.00 69 679.4
20260510053020 45 355 2.0 5.0 0.00 0.18 0.00 68 679.4
20260510052020 45 359 2.0 4.0 0.00 0.20 0.00 68 679.4
20260510051020 45 353 2.0 4.0 0.00 0.21 0.00 68 679.4
20260510050021 46 7 2.0 5.0 0.00 0.21 0.00 68 679.4
20260510045020 46 341 1.0 2.0 0.00 0.24 0.00 68 679.4
20260510044020 46 4 1.0 3.0 0.00 0.24 0.00 68 679.4
20260510043021 47 327 2.0 3.0 0.00 0.24 0.00 70 679.4
20260510042021 47 357 2.0 6.0 0.00 0.24 0.00 70 679.4
20260510041021 48 357 2.0 3.0 0.00 0.24 0.00 69 679.4
20260510040021 48 43 1.0 2.0 0.00 0.24 0.00 68 679.4
20260510035021 48 39 0.0 2.0 0.00 0.24 0.24 66 679.5
20260510034041 48 17 1.0 3.0 0.00 0.24 0.24 66 679.5
20260510033022 49 16 1.0 3.0 0.00 0.24 0.24 66 679.5
20260510032022 49 355 1.0 3.0 0.00 0.24 0.24 66 679.5
20260510031042 50 0 1.0 2.0 0.00 0.24 0.24 65 679.5
20260510030022 50 8 1.0 3.0 0.00 0.24 0.24 65 679.5
20260510025022 50 359 1.0 3.0 0.00 0.24 0.24 65 679.5
20260510024042 51 28 0.0 2.0 0.00 0.24 0.24 65 679.5
20260510023022 51 359 1.0 4.0 0.00 0.24 0.24 65 679.5
20260510022022 52 8 1.0 3.0 0.00 0.24 0.24 66 679.5
20260510021043 52 27 2.0 4.0 0.00 0.24 0.24 66 679.5
20260510020023 52 21 1.0 3.0 0.00 0.24 0.24 66 679.5
20260510015023 53 2 3.0 5.0 0.00 0.24 0.24 69 679.5
20260510014023 53 1 2.0 4.0 0.00 0.24 0.24 69 679.6
20260510013023 54 355 3.0 5.0 0.00 0.24 0.24 68 679.6
20260510012024 54 354 3.0 5.0 0.00 0.24 0.24 68 679.6
20260510011023 55 350 3.0 6.0 0.00 0.24 0.24 66 679.6
20260510010024 55 349 2.0 4.0 0.00 0.24 0.24 70 679.6
20260510005024 56 334 1.0 2.0 0.00 0.24 0.24 71 679.6
20260510004024 57 304 0.0 1.0 0.00 0.24 0.24 70 679.6
20260510003016 58 355 0.0 2.0 0.00 0.24 0.24 68 679.6
20260510002024 58 359 1.0 3.0 0.00 0.24 0.24 68 679.6
20260510001057 59 331 1.0 3.0 0.00 0.24 0.24 73 679.7
20260510000016 59 333 0.0 1.0 0.00 0.24 0.24 77 679.7
20260509235016 59 351 0.0 2.0 0.00 0.24 0.24 77 679.7
20260509234017 59 222 3.0 4.0 0.00 0.24 0.24 77 679.7
20260509233037 60 226 2.0 4.0 0.00 0.24 0.24 77 679.7
20260509232025 59 221 3.0 4.0 0.00 0.24 0.24 77 679.7
20260509231025 59 225 1.0 3.0 0.00 0.24 0.24 77 679.7
20260509230025 60 223 3.0 5.0 0.00 0.24 0.24 77 679.7
20260509225026 60 205 4.0 6.0 0.00 0.24 0.24 77 679.7
20260509224018 60 210 3.0 5.0 0.00 0.24 0.24 77 679.7
20260509223018 60 194 4.0 8.0 0.00 0.24 0.24 77 679.7
20260509222018 60 199 4.0 7.0 0.00 0.24 0.24 77 679.7
20260509221018 60 215 5.0 7.0 0.00 0.24 0.24 77 679.7
20260509220018 60 199 5.0 6.0 0.00 0.24 0.24 77 679.7
20260509215019 60 204 5.0 7.0 0.00 0.24 0.24 77 679.7
20260509214018 59 216 4.0 6.0 0.00 0.24 0.24 84 679.7
20260509213018 58 215 4.0 6.0 0.00 0.24 0.24 86 679.6
20260509212019 57 222 2.0 4.0 0.01 0.24 0.24 83 679.6
20260509211019 57 233 3.0 6.0 0.08 0.24 0.24 84 679.6
20260509210019 57 236 3.0 5.0 0.15 0.24 0.24 86 679.6
20260509205039 56 232 3.0 5.0 0.18 0.24 0.24 87 679.6
20260509204019 55 227 1.0 5.0 0.18 0.24 0.24 85 679.6
20260509203019 55 220 3.0 5.0 0.18 0.24 0.24 77 679.6
20260509202020 56 232 3.0 9.0 0.17 0.23 0.23 77 679.6
20260509201020 59 306 4.0 6.0 0.10 0.16 0.16 74 679.7
20260509200020 61 230 8.0 12.0 0.03 0.09 0.09 74 679.8
20260509195101 61 226 7.0 10.0 0.00 0.06 0.06 73 679.8
20260509194020 61 220 9.0 15.0 0.00 0.06 0.06 73 679.8
20260509193020 62 215 8.0 12.0 0.00 0.06 0.06 72 679.8
20260509192020 63 202 10.0 14.0 0.00 0.06 0.06 72 679.8
20260509191021 63 208 9.0 13.0 0.00 0.06 0.06 71 679.8
20260509190021 64 206 9.0 14.0 0.00 0.06 0.06 71 679.8
20260509185021 64 204 8.0 12.0 0.00 0.06 0.06 73 679.8
20260509184021 64 198 11.0 16.0 0.00 0.06 0.06 72 679.8
20260509183021 64 192 8.0 13.0 0.00 0.06 0.06 73 679.8
20260509182102 63 206 7.0 11.0 0.00 0.06 0.06 72 679.8
20260509181042 63 206 7.0 10.0 0.00 0.06 0.06 72 679.8
20260509180042 64 218 7.0 11.0 0.00 0.06 0.06 71 679.8
20260509175021 65 218 8.0 11.0 0.00 0.06 0.06 70 679.8
20260509174022 66 188 8.0 11.0 0.00 0.06 0.06 71 679.9
20260509173022 66 181 11.0 16.0 0.00 0.06 0.06 71 679.9
20260509172022 66 191 10.0 12.0 0.00 0.06 0.06 71 679.9
20260509171042 66 193 8.0 11.0 0.00 0.06 0.06 70 679.9
20260509170043 67 188 8.0 12.0 0.00 0.06 0.06 68 679.9
20260509165042 68 192 7.0 12.0 0.00 0.06 0.06 66 679.9
20260509164022 67 199 8.0 12.0 0.00 0.06 0.06 64 679.9
20260509163043 67 234 5.0 9.0 0.00 0.06 0.06 61 679.9
20260509162023 67 210 6.0 10.0 0.00 0.06 0.06 63 679.9
20260509161023 66 211 7.0 9.0 0.00 0.06 0.06 65 679.8
20260509160023 65 199 6.0 8.0 0.00 0.06 0.06 64 679.8
20260509155023 66 256 2.0 4.0 0.00 0.06 0.06 63 679.9
20260509154023 65 301 2.0 5.0 0.00 0.06 0.06 65 679.8
20260509153024 65 219 4.0 7.0 0.00 0.06 0.06 64 679.8
20260509152104 66 214 3.0 9.0 0.00 0.06 0.06 64 679.8
20260509151044 66 207 6.0 12.0 0.00 0.06 0.06 65 679.8
20260509150024 64 213 5.0 7.0 0.00 0.06 0.06 71 679.8
20260509145024 62 213 7.0 11.0 0.00 0.06 0.06 71 679.7
20260509144025 63 211 7.0 12.0 0.00 0.06 0.06 72 679.7
20260509143024 61 206 6.0 9.0 0.00 0.06 0.06 76 679.7
20260509142025 60 197 5.0 7.0 0.00 0.06 0.06 77 679.6
20260509141105 59 190 6.0 9.0 0.00 0.06 0.06 81 679.6
20260509140025 58 192 6.0 10.0 0.00 0.06 0.06 80 679.6
20260509135025 56 218 3.0 6.0 0.00 0.06 0.06 86 679.5
20260509134025 56 223 3.0 6.0 0.00 0.06 0.06 87 679.5
20260509133045 55 192 6.0 8.0 0.00 0.06 0.06 90 679.5
20260509132025 54 205 5.0 9.0 0.00 0.06 0.06 93 679.5
20260509131025 53 194 5.0 7.0 0.00 0.06 0.06 92 679.5
20260509130025 52 208 4.0 7.0 0.00 0.06 0.06 93 679.5
20260509125046 52 203 5.0 7.0 0.00 0.06 0.06 94 679.5
20260509124026 52 194 6.0 8.0 0.00 0.06 0.06 97 679.5
20260509123026 51 205 4.0 7.0 0.00 0.06 0.06 97 679.4
20260509122026 50 219 4.0 5.0 0.00 0.06 0.06 98 679.4
20260509121048 50 212 4.0 6.0 0.00 0.06 0.06 99 679.4
20260509120026 50 209 4.0 9.0 0.00 0.06 0.06 99 679.4